This is the latest recevied weather packets stored in our database for station/object K0CVS. If no packets are shown the sender has not sent any weather packets the latest 10 day(s).
| Time | Temp. | Humidity | Pressure | Rain* | Wind** | Luminosity | Snow |
|---|---|---|---|---|---|---|---|
| 1777332724 | 18.33° C | 69% | 1008.3 hPa | 0 mm | - | 23 W/m² | - |
| 1777332421 | 18.33° C | 68% | 1008.3 hPa | 0 mm | - | 22 W/m² | - |
| 1777332117 | 18.33° C | 69% | 1008.4 hPa | 0 mm | - | 26 W/m² | - |
| 1777331815 | 18.33° C | 69% | 1008.2 hPa | 0 mm | - | 34 W/m² | - |
| 1777331511 | 18.33° C | 68% | 1008.2 hPa | 0 mm | - | 32 W/m² | - |
| 1777331209 | 18.89° C | 69% | 1007.9 hPa | 1.27 mm | - | 28 W/m² | - |
| 1777330906 | 19.44° C | 68% | 1007.8 hPa | 1.27 mm | - | 23 W/m² | - |
| 1777330603 | 19.44° C | 69% | 1007.7 hPa | 0 mm | - | 30 W/m² | - |
| 1777330300 | 19.44° C | 68% | 1007.7 hPa | 0 mm | - | 41 W/m² | - |
| 1777329998 | 20° C | 69% | 1007.7 hPa | 0 mm | - | 27 W/m² | - |
| 1777329697 | 20° C | 68% | 1007.2 hPa | 0 mm | - | 38 W/m² | - |
| 1777329394 | 20.56° C | 67% | 1007.2 hPa | 0 mm | - | 36 W/m² | - |
| 1777329092 | 20.56° C | 67% | 1007.1 hPa | 0 mm | - | 52 W/m² | - |
| 1777328789 | 20.56° C | 66% | 1007 hPa | 0 mm | - | 49 W/m² | - |
| 1777328486 | 20.56° C | 66% | 1007 hPa | 0 mm | - | 41 W/m² | - |
| 1777328186 | 20.56° C | 66% | 1006.5 hPa | 0 mm | - | 46 W/m² | - |
| 1777327884 | 21.11° C | 66% | 1006.5 hPa | 1.78 mm | - | 47 W/m² | - |
| 1777327581 | 21.11° C | 67% | 1006.3 hPa | 1.78 mm | - | 84 W/m² | - |
| 1777327278 | 21.11° C | 65% | 1006.2 hPa | 0 mm | - | 90 W/m² | - |
| 1777326975 | 21.67° C | 64% | 1006.3 hPa | 0 mm | - | 79 W/m² | - |
| 1777326673 | 21.67° C | 64% | 1006 hPa | 0 mm | - | 122 W/m² | - |
| 1777326369 | 21.67° C | 64% | 1006.1 hPa | 0 mm | - | 113 W/m² | - |
| 1777326067 | 21.67° C | 64% | 1005.9 hPa | 0 mm | - | 147 W/m² | - |
| 1777325764 | 21.11° C | 64% | 1005.8 hPa | 0 mm | - | 151 W/m² | - |
| 1777325463 | 21.67° C | 63% | 1005.6 hPa | 0 mm | - | 92 W/m² | - |
* Rain latest hour (hover to see other rain measurements)
** Current wind speed in m/s (hover to see current wind gust speed)